TimeMDT,TemperatureF,Dew PointF,Humidity,Sea Level PressureIn,VisibilityMPH,Wind Direction,Wind SpeedMPH,Gust SpeedMPH,PrecipitationIn,Events,Conditions,WindDirDegrees,DateUTC
12:53 AM,39.9,34.0,79,30.06,10.0,North,6.9,-,N/A,,Partly Cloudy,10,2013-10-22 06:53:00
1:53 AM,37.9,34.0,86,30.09,10.0,Calm,Calm,-,N/A,,Clear,0,2013-10-22 07:53:00
2:53 AM,36.0,34.0,93,30.09,10.0,NW,3.5,-,N/A,,Clear,310,2013-10-22 08:53:00
3:53 AM,35.1,32.0,89,30.09,10.0,West,3.5,-,N/A,,Clear,260,2013-10-22 09:53:00
4:53 AM,33.1,30.9,92,30.12,10.0,West,5.8,-,N/A,,Clear,280,2013-10-22 10:53:00
5:53 AM,34.0,32.0,92,30.14,10.0,WSW,3.5,-,N/A,,Scattered Clouds,250,2013-10-22 11:53:00
6:53 AM,35.1,32.0,89,30.14,10.0,WSW,3.5,-,N/A,,Overcast,250,2013-10-22 12:53:00
7:53 AM,36.0,33.1,89,30.16,10.0,Calm,Calm,-,N/A,,Mostly Cloudy,0,2013-10-22 13:53:00
8:53 AM,39.0,35.1,86,30.16,10.0,Calm,Calm,-,N/A,,Mostly Cloudy,0,2013-10-22 14:53:00
9:53 AM,42.1,37.0,82,30.16,10.0,Calm,Calm,-,N/A,,Overcast,0,2013-10-22 15:53:00
10:53 AM,44.1,37.0,76,30.16,10.0,Variable,3.5,-,N/A,,Scattered Clouds,0,2013-10-22 16:53:00
11:53 AM,46.0,37.0,71,30.15,10.0,Calm,Calm,-,N/A,,Overcast,0,2013-10-22 17:53:00
12:53 PM,48.0,37.9,68,30.13,10.0,South,3.5,-,N/A,,Overcast,170,2013-10-22 18:53:00
1:53 PM,50.0,37.9,63,30.11,10.0,SW,3.5,-,N/A,,Overcast,230,2013-10-22 19:53:00
2:53 PM,50.0,37.9,63,30.10,10.0,West,8.1,-,N/A,,Overcast,260,2013-10-22 20:53:00
3:53 PM,51.1,37.9,61,30.10,10.0,West,3.5,-,N/A,,Overcast,280,2013-10-22 21:53:00
4:53 PM,51.1,39.0,63,30.09,10.0,Calm,Calm,-,N/A,,Overcast,0,2013-10-22 22:53:00
5:53 PM,48.9,39.9,71,30.07,10.0,Calm,Calm,-,N/A,,Overcast,0,2013-10-22 23:53:00
6:53 PM,46.9,39.9,77,30.06,10.0,Calm,Calm,-,N/A,,Overcast,0,2013-10-23 00:53:00
7:53 PM,45.0,39.0,80,30.06,10.0,NE,4.6,-,N/A,,Overcast,50,2013-10-23 01:53:00
8:53 PM,45.0,39.0,80,30.05,10.0,Calm,Calm,-,N/A,,Mostly Cloudy,0,2013-10-23 02:53:00
9:53 PM,44.1,39.0,82,30.05,10.0,NE,3.5,-,N/A,,Scattered Clouds,40,2013-10-23 03:53:00
10:53 PM,43.0,39.0,86,30.05,10.0,ENE,3.5,-,N/A,,Scattered Clouds,70,2013-10-23 04:53:00
11:53 PM,43.0,39.0,86,30.06,10.0,ENE,3.5,-,N/A,,Mostly Cloudy,60,2013-10-23 05:53:00